Lancaster, PA

11:32 AM EDT on June 28, 2017 (GMT -0400)
Lancaster

Weather History for KLNS - August, 2013

Change the Weather History Date:

Thursday, August 8, 2013

  Actual Average Record
Temperature  
Mean Temperature 76 °F -  
Max Temperature 86 °F 85 °F 97 °F (1983)
Min Temperature 68 °F 63 °F 51 °F (1989)
Cooling Degree Days 11    
Growing Degree Days 26 (Base 50)    
Moisture  
Dew Point 69 °F    
Average Humidity 85    
Maximum Humidity 96    
Minimum Humidity 63    
Precipitation  
Precipitation 0.56 in - - ()
Sea Level Pressure  
Sea Level Pressure 30.01 in    
Wind  
Wind Speed 5 mph (South)    
Max Wind Speed 18 mph    
Max Gust Speed 25 mph    
Visibility 7 miles    
Events Rain , Thunderstorm    
Averages and records for this station are not official NWS values.
T = Trace of Precipitation, MM = Missing Value Source: NWS Daily Summary

Daily Weather History Graph

Daily Weather History Graph

Search for Another Location

Airport or City:

Trip Planner

Search our weather history database for the weather conditions in past years. The results will help you decide how hot, cold, wet, or windy it might be!

Date:

Astronomy

Aug. 08, 2013 Rise Set
Actual Time 6:10 AM EDT 8:10 PM EDT
Civil Twilight 5:40 AM EDT 8:40 PM EDT
Nautical Twilight 5:04 AM EDT 9:16 PM EDT
Astronomical Twilight 4:24 AM EDT 9:55 PM EDT
Moon 7:55 AM EDT (8/8) 8:48 PM EDT (8/8)
Length of Visible Light 15h 00m
Length of Day
14h 00m
Waxing Crescent, 3% of the Moon is Illuminated
Aug 8
Waxing Crescent
Aug 14
First Quarter
Aug 20
Full
Aug 28
Last Quarter
Sep 5
New

Hourly Weather History & Observations

Time (EDT) Temp. Heat Index Dew Point Humidity Pressure Visibility Wind Dir Wind Speed Gust Speed Precip Events Conditions
12:00 AM 71.6 °F - 66.2 °F 83% 30.05 in 7.0 mi SSW 5.8 mph - 0.00 in Rain Light Rain
12:53 AM 70.0 °F - 68.0 °F 93% 30.03 in 5.0 mi East 3.5 mph - 0.02 in   Mostly Cloudy
1:02 AM 69.8 °F - 68.0 °F 94% 30.03 in 4.0 mi East 3.5 mph - 0.01 in   Mostly Cloudy
1:24 AM 69.8 °F - 68.0 °F 94% 30.03 in 3.0 mi Calm Calm - 0.04 in   Scattered Clouds
1:53 AM 70.0 °F - 68.0 °F 93% 30.01 in 2.5 mi East 4.6 mph - 0.07 in   Partly Cloudy
2:12 AM 71.6 °F - 69.8 °F 94% 30.01 in 4.0 mi South 3.5 mph - 0.02 in   Partly Cloudy
2:45 AM 69.8 °F - 68.0 °F 94% 30.02 in 2.0 mi Calm Calm - 0.06 in   Clear
2:53 AM 69.1 °F - 68.0 °F 96% 30.01 in 4.0 mi ESE 3.5 mph - 0.07 in   Clear
3:53 AM 68.0 °F - 66.9 °F 96% 30.01 in 7.0 mi South 3.5 mph - 0.09 in   Scattered Clouds
4:04 AM 69.8 °F - 66.2 °F 88% 30.02 in 10.0 mi Calm Calm - 0.01 in   Mostly Cloudy
4:39 AM 68.0 °F - 66.2 °F 94% 30.02 in 8.0 mi Calm Calm - 0.06 in   Scattered Clouds
4:53 AM 68.0 °F - 66.0 °F 93% 30.01 in 9.0 mi Calm Calm - 0.08 in   Mostly Cloudy
5:43 AM 69.8 °F - 66.2 °F 88% 30.03 in 5.0 mi Calm Calm - 0.06 in   Overcast
5:53 AM 69.1 °F - 66.9 °F 93% 30.02 in 5.0 mi Calm Calm - 0.08 in   Overcast
6:53 AM 70.0 °F - 68.0 °F 93% 30.03 in 6.0 mi Calm Calm - 0.03 in   Overcast
7:53 AM 70.0 °F - 68.0 °F 93% 30.04 in 6.0 mi SE 3.5 mph - N/A   Overcast
8:53 AM 73.0 °F - 70.0 °F 90% 30.04 in 4.0 mi Calm Calm - N/A   Overcast
9:22 AM 73.4 °F - 69.8 °F 88% 30.05 in 6.0 mi SSW 4.6 mph - N/A   Overcast
9:53 AM 75.0 °F - 70.0 °F 84% 30.04 in 7.0 mi South 5.8 mph - N/A   Overcast
10:35 AM 77.0 °F - 71.6 °F 83% 30.04 in 8.0 mi South 6.9 mph - N/A   Overcast
10:53 AM 79.0 °F - 71.1 °F 77% 30.02 in 8.0 mi SSW 8.1 mph - N/A   Mostly Cloudy
11:53 AM 81.0 °F 84.4 °F 70.0 °F 69% 30.01 in 10.0 mi SSW 11.5 mph 17.3 mph N/A   Mostly Cloudy
12:07 PM 80.6 °F 83.9 °F 69.8 °F 70% 30.02 in 10.0 mi SSW 11.5 mph - N/A   Scattered Clouds
12:53 PM 82.9 °F 87.0 °F 70.0 °F 65% 30.01 in 10.0 mi WSW 13.8 mph 18.4 mph N/A   Scattered Clouds
1:53 PM 84.0 °F 88.4 °F 70.0 °F 63% 30.01 in 10.0 mi SW 9.2 mph - N/A   Mostly Cloudy
2:53 PM 82.0 °F 86.3 °F 71.1 °F 69% 30.01 in 8.0 mi SW 6.9 mph - 0.00 in Rain Light Rain
3:48 PM 77.0 °F - 71.6 °F 83% 30.01 in 2.5 mi WSW 12.7 mph 25.3 mph 0.00 in Rain , Thunderstorm Heavy Thunderstorms and Rain
3:49 PM 77.0 °F - 72.0 °F 84% 30.00 in 2.0 mi WSW 9.2 mph 25.3 mph 0.00 in Rain , Thunderstorm Heavy Thunderstorms and Rain
4:04 PM 78.8 °F - 71.6 °F 78% 29.99 in 8.0 mi West 3.5 mph - 0.01 in Rain , Thunderstorm Light Thunderstorms and Rain
4:16 PM 78.8 °F - 73.4 °F 83% 29.99 in 10.0 mi WNW 3.5 mph - 0.01 in   Mostly Cloudy
4:53 PM 79.0 °F - 71.1 °F 77% 29.98 in 10.0 mi South 13.8 mph 21.9 mph 0.04 in   Overcast
5:53 PM 79.0 °F - 70.0 °F 74% 29.99 in 10.0 mi South 8.1 mph - 0.04 in   Clear
6:53 PM 79.0 °F - 72.0 °F 79% 29.98 in 10.0 mi South 6.9 mph - N/A   Mostly Cloudy
7:40 PM 78.8 °F - 71.6 °F 78% 30.00 in 10.0 mi South 11.5 mph 18.4 mph N/A Thunderstorm Overcast
7:53 PM 78.1 °F - 70.0 °F 76% 29.99 in 10.0 mi SW 18.4 mph 24.2 mph N/A   Overcast
8:53 PM 73.0 °F - 70.0 °F 90% 30.00 in 10.0 mi South 5.8 mph - N/A Rain Light Rain
9:53 PM 72.0 °F - 70.0 °F 93% 30.01 in 9.0 mi Calm Calm - N/A   Mostly Cloudy
10:53 PM 73.0 °F - 71.1 °F 93% 30.00 in 8.0 mi SE 4.6 mph - 0.01 in Rain Light Rain
11:53 PM 73.9 °F - 71.1 °F 91% 29.99 in 8.0 mi SSE 5.8 mph - 0.03 in   Overcast